Wind_Speed
8 7 9 7 6 6 5 6 7 5 7 6 5 4 3 3 3 4 5 5 5 6 6 5 6 6 7 9 10 11 12 15 11 16 15 15 11 8 9 8 7 7 7
10 11 10 10 9 9 7 6 7 6 7 5 5 6 6 6 7 3 2 5 2 2 3 4 4 4 4 4 7 9 13 14 12 12 17 17 13 11 8 8 9 9 9
14 12 11 11 12 11 8 6 5 5 7 6 5 5 4 4 3 5 7 6 3 1 3 3 2 3 4 1 3 8 9 10 10 12 16 19 16 14 11 11 10 9 9
15 14 13 14 13 11 10 9 9 8 8 6 6 5 4 3 3 2 3 0 1 1 1 2 3 2 1 2 2 4 6 7 9 10 15 19 19 16 15 14 13 12 10
17 17 16 16 14 12 12 11 10 10 9 7 7 6 5 4 2 2 0 0 2 2 3 3 3 2 1 2 2 3 2 4 6 9 15 18 20 20 19 18 15 12 12
16 14 15 17 15 15 14 14 13 11 13 10 9 7 5 3 8 4 6 1 0 1 2 2 5 4 2 1 4 6 7 8 7 12 13 18 20 20 19 19 16 15 11
20 19 15 17 16 14 14 15 13 13 13 13 11 7 6 8 10 6 6 4 2 2 2 2 3 4 5 4 1 2 5 9 11 10 10 14 19 20 19 19 17 14 12
22 18 17 19 17 15 16 16 15 15 15 13 12 10 9 10 8 7 6 5 4 3 3 3 2 2 4 2 3 3 3 2 5 9 8 9 12 14 17 18 20 17 13
20 19 18 19 18 18 18 17 17 16 15 15 11 11 11 9 11 10 8 5 9 6 5 4 4 2 8 4 4 3 6 4 5 7 8 12 11 11 13 17 19 20 16
20 21 20 20 21 20 21 20 17 16 14 13 12 11 12 10 14 13 11 8 9 7 6 8 7 8 7 6 4 4 4 7 5 6 8 10 12 14 15 15 17 20 20
18 19 21 22 25 23 22 20 18 16 14 13 12 14 14 14 15 12 12 12 9 9 6 10 9 9 8 7 8 7 9 9 10 7 6 8 12 15 18 18 20 19 19
16 19 19 22 22 23 24 22 20 18 17 15 15 15 13 15 17 14 13 14 14 12 11 12 11 14 13 11 11 13 12 12 9 9 10 11 11 13 15 18 21 23 21
11 14 17 19 21 21 24 23 20 20 20 18 17 17 16 17 18 16 13 15 16 18 14 16 18 17 17 17 15 15 14 14 12 13 14 13 13 12 12 14 16 19 21
13 13 16 18 21 23 24 25 24 24 21 20 19 20 20 18 17 14 13 13 14 16 19 23 23 24 24 22 20 19 18 18 17 16 17 14 13 13 14 15 16 17 17
13 15 17 20 21 24 25 25 24 24 19 15 17 20 20 17 15 15 14 14 15 17 14 18 23 24 25 23 24 22 23 20 22 23 20 16 16 16 17 16 17 17 18
14 18 20 22 24 23 27 28 25 23 20 20 20 23 23 19 20 18 13 12 14 17 19 21 22 25 28 26 25 23 23 23 21 22 20 21 19 20 21 21 20 21 20
15 20 23 26 24 26 27 20 17 18 19 18 16 13 10 11 10 10 9 10 10 12 15 19 23 23 22 24 22 26 23 32 29 21 26 28 27 26 25 23 25 27 27
6 9 16 20 19 14 16 12 9 5 3 3 4 5 8 7 6 5 5 5 5 7 10 10 14 14 15 18 19 18 20 25 26 29 31 33 34 32 31 30 28 25 26
10 5 3 4 11 12 8 6 4 4 2 3 4 4 4 5 3 4 4 4 2 4 5 7 11 9 10 10 13 14 15 15 15 19 23 26 26 30 33 35 31 32 31
9 16 15 13 15 12 11 7 4 4 4 0 6 5 2 3 5 6 5 2 4 5 4 6 7 8 7 7 8 9 9 9 10 11 13 16 18 24 28 31 35 35 36
8 4 9 5 2 9 6 6 6 4 6 6 11 7 6 6 5 5 4 1 2 4 6 4 6 6 8 10 9 9 9 9 9 9 10 10 12 16 18 22 29 35 38
8 8 6 7 6 5 5 6 7 7 7 3 3 3 3 4 4 2 0 3 3 6 4 3 4 5 3 6 9 12 11 10 11 11 12 13 13 14 17 22 27 30 38
13 15 10 8 6 7 7 6 4 8 6 5 3 6 4 4 4 5 5 5 5 6 5 4 2 4 3 6 6 5 8 6 4 7 10 15 18 20 21 22 21 22 24
22 18 15 14 12 10 8 2 2 3 6 8 6 7 7 7 4 6 7 3 2 4 5 4 4 4 3 4 6 10 10 10 12 14 15 15 16 17 16 19 22 22 23
12 14 15 13 11 7 6 4 7 11 8 9 7 9 8 6 7 8 10 7 7 7 6 6 6 8 8 8 8 9 10 11 11 11 12 9 11 12 12 16 22 27 28
6 6 7 4 2 6 12 13 10 10 10 9 10 9 11 9 9 9 9 9 9 8 5 3 3 2 2 3 12 12 12 13 13 13 15 10 13 13 14 14 16 16 16
Wind_Direction
246 172 188 149 169 149 135 131 127 152 189 208 176 160 201 238 257 253 243 255 268 274 286 289 288 286 270 243 237 235 217 206 204 197 205 198 193 208 199 204 211 209 207
203 186 167 166 153 150 145 150 150 148 133 158 174 187 184 193 213 226 230 239 226 277 328 325 339 309 293 243 225 206 186 207 209 203 196 194 194 189 187 202 187 189 187
191 179 174 165 166 154 147 152 158 162 151 176 178 184 181 176 173 164 180 204 171 66 4 320 340 354 2 78 167 181 208 202 208 211 200 194 195 195 200 197 184 191 185
180 179 178 173 174 161 157 169 165 166 163 179 183 185 184 164 154 158 159 148 58 338 321 358 357 338 321 80 150 179 193 194 196 197 206 199 203 200 195 194 190 195 188
182 181 184 179 172 169 166 172 175 172 177 186 196 200 193 176 145 161 113 56 104 69 10 23 357 355 322 224 183 173 214 214 205 209 210 211 208 205 203 201 200 194 182
186 197 195 187 177 178 175 175 176 183 193 178 195 200 212 213 244 223 160 220 79 75 83 43 7 12 357 267 228 223 222 212 219 221 227 222 221 215 213 209 203 188 179
200 200 196 197 192 189 182 182 178 190 195 182 189 194 216 240 251 230 201 149 235 283 349 20 66 308 24 334 279 244 237 230 226 239 260 242 228 225 224 214 199 189 196
212 207 207 203 197 192 194 190 186 194 197 192 186 192 211 226 236 238 230 225 214 254 261 295 256 302 246 183 14 326 312 263 224 222 226 254 241 236 226 221 203 207 192
211 206 207 206 199 198 202 197 197 195 195 197 194 203 221 230 249 238 238 236 245 238 243 257 261 250 264 248 159 228 301 321 275 248 231 226 231 238 230 222 219 207 203
208 213 210 209 200 205 204 203 201 201 198 199 198 212 225 227 249 238 239 226 268 251 272 279 276 263 281 272 219 245 237 262 220 263 240 241 235 233 229 228 224 220 205
206 213 215 213 205 207 210 206 204 206 208 206 209 213 223 244 240 238 241 233 230 258 259 261 263 275 274 261 256 232 234 236 256 246 246 235 233 233 233 228 221 216 214
211 211 209 211 206 211 214 211 206 211 212 219 215 226 233 235 245 244 238 243 233 227 252 246 262 261 273 275 267 260 259 241 238 250 240 245 230 240 239 231 224 226 224
224 217 214 211 214 216 221 216 215 219 216 221 228 236 242 246 238 252 258 248 244 244 234 251 250 253 267 269 268 269 264 260 244 247 246 248 245 249 246 254 241 240 240
245 235 226 215 218 221 227 228 223 227 230 229 237 243 243 244 240 242 251 254 253 246 251 250 251 255 261 264 264 263 263 260 248 237 239 252 249 242 237 229 238 240 243
248 236 236 234 229 230 226 226 228 228 227 224 250 249 248 243 226 234 239 239 256 267 263 250 254 254 261 262 261 260 261 258 252 249 235 245 247 240 237 237 233 236 242
246 242 238 234 226 230 232 235 231 228 238 250 258 256 258 234 241 259 269 260 263 263 264 263 259 262 262 265 263 261 246 256 255 254 248 245 242 243 242 238 241 241 245
285 248 243 236 231 228 237 239 241 240 248 259 277 276 263 278 280 276 277 275 274 273 271 270 268 272 275 274 273 264 265 250 266 250 243 239 234 238 246 244 242 245 241
294 284 256 241 226 214 211 210 222 255 288 302 297 300 272 282 286 297 314 319 327 328 323 299 282 283 279 276 274 276 280 271 258 245 249 254 251 252 244 242 236 255 255
20 61 91 161 176 155 163 185 204 217 111 337 148 298 278 13 4 15 354 339 301 306 305 283 297 286 283 281 277 277 275 278 268 263 267 264 259 255 248 250 249 250 246
31 42 36 41 34 61 99 121 50 116 76 268 247 155 53 313 282 355 345 62 307 316 321 325 317 324 312 304 292 287 290 289 290 286 287 286 281 269 263 259 254 249 245
315 296 339 301 73 75 80 180 178 186 198 220 240 229 253 306 315 312 17 126 1 5 3 320 352 341 347 341 333 320 307 299 307 311 296 288 283 283 281 272 267 248 244
300 270 274 289 340 191 193 194 213 210 201 217 211 250 295 226 273 318 36 40 8 339 305 312 336 301 303 322 340 350 349 345 338 331 325 325 322 309 291 280 278 266 259
284 300 269 261 280 272 263 250 255 210 177 164 138 109 89 143 101 77 81 70 39 10 11 2 19 32 23 28 13 307 283 284 308 331 311 306 304 308 313 306 294 275 263
281 286 284 287 293 265 292 216 293 266 133 129 130 111 82 68 73 61 70 72 110 55 18 26 346 306 301 239 250 292 306 301 297 293 293 306 311 303 298 288 288 277 270
279 267 267 265 267 263 240 150 137 112 109 104 109 116 105 72 51 48 40 42 48 51 42 43 34 31 24 31 18 2 355 346 341 339 342 343 311 318 305 300 293 290 290
296 243 259 266 150 128 138 128 117 119 122 110 97 90 72 76 75 77 63 65 54 48 41 41 2 109 75 293 328 330 330 330 332 333 337 345 314 314 310 317 311 312 316
Height
1501 1504 1504 1504 1507 1508 1510 1510 1507 1508 1511 1513 1513 1516 1519 1520 1519 1519 1520 1520 1519 1519 1518 1517 1516 1514 1514 1515 1516 1517 1519 1521 1522 1526 1528 1530 1533 1534 1536 1537 1538 1539 1539
1498 1503 1500 1503 1506 1508 1509 1508 1508 1510 1511 1515 1515 1516 1517 1516 1517 1518 1519 1519 1518 1517 1518 1517 1516 1515 1514 1514 1514 1515 1517 1518 1521 1523 1525 1528 1531 1534 1535 1537 1538 1538 1539
1496 1501 1501 1503 1505 1505 1508 1509 1510 1511 1512 1515 1515 1516 1515 1514 1514 1515 1517 1515 1516 1516 1517 1516 1515 1515 1514 1514 1514 1515 1517 1518 1519 1521 1522 1526 1528 1531 1533 1536 1537 1538 1539
1495 1499 1501 1502 1503 1503 1505 1509 1510 1512 1513 1516 1516 1516 1517 1517 1517 1518 1516 1516 1516 1515 1515 1515 1514 1514 1515 1515 1515 1516 1517 1517 1519 1520 1522 1524 1527 1530 1532 1534 1537 1538 1539
1496 1496 1497 1500 1501 1503 1504 1507 1509 1510 1512 1515 1517 1517 1516 1516 1516 1516 1518 1517 1516 1516 1516 1516 1514 1514 1515 1516 1516 1516 1517 1517 1518 1519 1522 1524 1526 1528 1530 1532 1535 1537 1538
1496 1499 1499 1500 1499 1500 1502 1504 1506 1510 1510 1512 1515 1515 1516 1517 1515 1514 1515 1518 1518 1517 1516 1516 1515 1515 1516 1516 1516 1516 1516 1518 1518 1520 1520 1522 1524 1526 1529 1531 1533 1536 1539
1494 1493 1496 1499 1501 1502 1501 1503 1504 1509 1510 1509 1511 1513 1515 1515 1515 1514 1514 1516 1519 1519 1518 1517 1517 1517 1517 1516 1516 1516 1516 1517 1518 1519 1520 1521 1522 1525 1527 1530 1531 1536 1538
1489 1490 1492 1497 1499 1499 1501 1502 1503 1506 1506 1508 1507 1508 1512 1512 1512 1513 1514 1515 1515 1517 1517 1517 1516 1517 1516 1518 1518 1518 1517 1516 1517 1518 1519 1520 1520 1522 1525 1528 1531 1533 1536
1485 1489 1492 1494 1496 1497 1501 1501 1503 1503 1503 1504 1505 1506 1509 1510 1511 1512 1512 1513 1515 1513 1514 1515 1516 1516 1516 1516 1517 1519 1517 1517 1516 1516 1517 1518 1519 1520 1522 1524 1526 1530 1532
1482 1486 1489 1491 1492 1495 1497 1499 1500 1501 1502 1503 1503 1503 1506 1507 1508 1510 1510 1511 1512 1513 1511 1512 1513 1514 1515 1516 1517 1519 1518 1517 1518 1515 1515 1516 1516 1516 1518 1519 1521 1524 1528
1479 1481 1485 1486 1487 1492 1494 1495 1497 1499 1501 1500 1500 1500 1502 1503 1505 1506 1507 1508 1511 1512 1513 1512 1512 1511 1512 1513 1515 1516 1517 1516 1515 1514 1514 1514 1514 1514 1516 1517 1519 1521 1523
1475 1477 1480 1483 1485 1487 1490 1492 1493 1495 1497 1498 1498 1498 1499 1501 1502 1502 1502 1505 1506 1507 1509 1510 1509 1509 1510 1511 1511 1513 1514 1514 1515 1516 1515 1513 1512 1511 1511 1513 1515 1517 1520
1473 1473 1476 1478 1480 1483 1485 1488 1490 1491 1492 1493 1495 1496 1495 1495 1497 1498 1498 1500 1502 1503 1505 1505 1505 1505 1505 1506 1507 1509 1511 1512 1512 1514 1514 1513 1513 1513 1512 1513 1514 1515 1515
1471 1471 1471 1474 1477 1479 1481 1483 1484 1486 1488 1488 1491 1491 1491 1492 1492 1493 1493 1495 1496 1496 1498 1500 1500 1499 1500 1501 1502 1503 1503 1506 1508 1509 1510 1510 1511 1511 1511 1512 1513 1513 1512
1467 1467 1467 1469 1471 1474 1475 1476 1478 1481 1480 1484 1488 1487 1487 1486 1486 1488 1489 1491 1491 1489 1492 1494 1494 1493 1494 1495 1496 1498 1498 1499 1500 1502 1505 1506 1507 1506 1506 1506 1506 1507 1508
1461 1461 1463 1464 1465 1469 1469 1468 1472 1473 1474 1477 1480 1484 1477 1475 1481 1482 1484 1485 1485 1486 1485 1486 1488 1488 1489 1489 1489 1491 1493 1493 1493 1495 1497 1500 1501 1501 1501 1500 1502 1503 1503
1455 1455 1457 1460 1461 1462 1462 1465 1467 1469 1471 1473 1472 1476 1477 1476 1476 1477 1478 1479 1480 1481 1480 1481 1483 1483 1482 1484 1484 1483 1486 1486 1487 1488 1490 1490 1491 1492 1493 1495 1495 1494 1494
1454 1453 1454 1455 1456 1458 1460 1462 1464 1467 1468 1467 1468 1475 1477 1475 1474 1474 1475 1475 1476 1476 1477 1477 1479 1478 1478 1478 1479 1479 1479 1478 1480 1479 1480 1480 1483 1484 1484 1485 1485 1486 1487
1454 1453 1451 1452 1452 1453 1458 1459 1462 1464 1462 1468 1468 1473 1477 1474 1474 1473 1474 1473 1476 1477 1476 1477 1476 1474 1474 1474 1473 1473 1473 1471 1471 1473 1474 1472 1473 1474 1476 1478 1478 1481 1480
1461 1457 1455 1453 1451 1452 1455 1460 1460 1465 1464 1466 1471 1471 1471 1473 1473 1472 1472 1473 1474 1475 1475 1474 1473 1472 1471 1471 1471 1470 1469 1468 1468 1467 1468 1468 1468 1467 1467 1469 1471 1471 1472
1463 1459 1460 1458 1457 1454 1453 1459 1464 1464 1464 1466 1466 1468 1470 1472 1472 1471 1472 1473 1472 1474 1473 1473 1471 1470 1469 1469 1468 1467 1466 1465 1464 1464 1464 1463 1462 1461 1461 1461 1462 1463 1465
1465 1463 1460 1459 1458 1459 1460 1460 1461 1462 1463 1462 1466 1467 1469 1471 1472 1472 1471 1472 1473 1472 1472 1471 1470 1469 1469 1470 1467 1466 1465 1464 1462 1462 1462 1461 1459 1457 1457 1456 1455 1456 1457
1462 1459 1457 1457 1459 1459 1459 1459 1459 1459 1460 1462 1465 1467 1469 1471 1472 1471 1470 1469 1472 1471 1470 1469 1468 1468 1468 1469 1466 1464 1463 1463 1463 1462 1459 1458 1455 1453 1452 1453 1452 1450 1450
1459 1459 1459 1457 1458 1457 1458 1455 1458 1460 1460 1463 1465 1466 1469 1471 1472 1471 1469 1468 1469 1470 1470 1469 1468 1468 1466 1466 1464 1462 1462 1461 1460 1458 1456 1455 1453 1453 1450 1450 1448 1445 1443
1456 1457 1456 1454 1453 1455 1455 1458 1459 1461 1466 1468 1467 1467 1468 1470 1471 1471 1470 1470 1470 1470 1471 1470 1470 1469 1467 1465 1464 1463 1461 1460 1459 1458 1455 1452 1450 1449 1448 1444 1443 1441 1439
1453 1453 1451 1451 1453 1454 1456 1458 1461 1462 1465 1468 1470 1470 1470 1472 1474 1473 1472 1472 1472 1471 1472 1470 1469 1469 1467 1463 1462 1462 1461 1459 1456 1454 1451 1449 1451 1450 1446 1443 1441 1439 1435